Preview of NWS' New Version of Forecast
This preview is not operational and should not be used for support decisions.

Regional Weather Roundup (RWR)

Issued by National Weather Service (NWS)

                            
000
ASUS43 KLSX 180257
RWRMO 

WEATHER SUMMARY FOR MISSOURI
NATIONAL WEATHER SERVICE SPRINGFIELD MO
1000 PM CDT TUE SEP 17 2019

NOTE: "FAIR" INDICATES FEW OR NO CLOUDS BELOW 12,000 FEET WITH NO
       SIGNIFICANT WEATHER AND/OR OBSTRUCTIONS TO VISIBILITY.
       CURRENT SKY AND/OR WEATHER CONDITIONS ARE NOT AVAILABLE FOR
       CHILLICOTHE AND FARMINGTON.

MOZ001>031-035>038-043-044-053-054-180400-
...NORTHERN AND WESTERN MISSOURI...
  
CITY           SKY/WX    TMP DP  RH WIND       PRES   REMARKS
KANSAS CTY INT PTCLDY    76  66  71 SE9       29.97S                  
LEE'S SUMMIT   CLEAR     80  67  64 SE7       29.99R                  
ST JOSEPH      CLEAR     79  66  64 SE7       29.95S                  
CHILLICOTHE      N/A     72  70  93 CALM      30.00S                  
     
$$
MOZ066>068-077>081-088>096-101>105-180400-
...SOUTHWEST MISSOURI...
  
CITY           SKY/WX    TMP DP  RH WIND       PRES   REMARKS
SPRINGFIELD    CLEAR     77  64  64 S6        30.02R                  
JOPLIN         CLEAR     77  69  76 SE6       29.99S                  
               
$$
MOZ032>034-039>042-045>050-055>058-069>072-180400-
...CENTRAL MISSOURI...  
  
CITY           SKY/WX    TMP DP  RH WIND       PRES   REMARKS
COLUMBIA       NOT AVBL                                               
JEFFERSON CITY CLEAR     79  73  82 E5        30.01R                  
ROLLA          CLEAR     75  69  81 E7        30.05R                  
SEDALIA        CLEAR     74  69  85 E5        30.01S                  
WARRENSBURG    CLEAR     77  66  69 CALM      29.99S                  
               
$$
MOZ051-052-059>065-180400-
...EAST CENTRAL MISSOURI...
  
CITY           SKY/WX    TMP DP  RH WIND       PRES   REMARKS
ST LOUIS INTL  MOCLDY    77  68  73 E6        30.04S                  
                   
$$
MOZ072>076-082>087-097>100-106>115-180400-
...SOUTH CENTRAL AND SOUTHEAST MISSOURI...
  
CITY           SKY/WX    TMP DP  RH WIND       PRES   REMARKS
CAPE GIRARDEAU FAIR      77  71  82 E3        30.01R                  
POPLAR BLUFF   MOCLDY    76  72  87 MISG      30.00R                  
WEST PLAINS    CLEAR     71  67  87 CALM      30.05S                  
                                       
$$